CAPE
0 0 0 0 0 0 0 0 0 0 0 0 0 0 0 0 0 0 0 0 0 2 4 6 8 5 0 0 0 0 0 0 0 0 0 0 1 1 3 5 6 8 7
0 0 0 0 0 0 0 0 0 0 0 0 0 0 0 0 0 0 0 0 0 0 8 5 3 1 1 0 0 0 0 0 0 0 0 0 0 2 3 2 3 3 7
0 0 0 0 0 0 0 0 0 0 0 0 0 0 0 0 0 0 0 0 0 0 11 3 0 0 3 0 0 0 0 0 0 0 0 0 0 6 4 4 3 3 3
6 0 0 0 0 0 0 0 0 0 0 0 0 0 0 0 0 0 0 0 0 0 0 10 0 0 0 0 0 0 0 0 0 0 0 0 0 4 4 3 3 5 5
44 4 5 0 0 0 0 0 0 0 0 0 0 0 0 0 0 0 0 0 0 0 0 0 0 0 0 0 0 0 0 0 0 0 0 0 0 1 1 2 3 4 8
70 21 1 0 0 0 0 0 0 0 0 0 0 0 0 0 0 0 0 0 0 0 0 0 0 0 0 0 0 0 0 0 0 0 0 0 0 0 0 0 2 8 8
67 0 12 14 0 0 0 0 0 0 0 0 0 0 0 0 0 0 0 0 0 0 0 0 0 0 0 0 0 0 0 0 0 0 0 0 0 0 0 0 1 5 10
13 48 37 16 0 0 0 0 0 0 0 0 0 0 0 0 0 0 0 0 0 0 0 0 0 0 0 0 0 0 0 0 0 0 0 0 0 0 0 0 0 3 7
25 22 17 8 12 0 0 0 0 0 0 0 0 0 0 0 0 0 0 0 0 0 0 0 0 0 0 0 0 0 0 0 0 0 0 0 0 0 0 0 0 0 0
32 57 28 5 0 0 0 0 0 0 0 0 0 0 0 0 0 0 0 0 0 0 0 0 0 0 0 0 0 0 0 0 0 0 0 0 0 0 0 0 0 0 1
21 21 37 12 17 0 0 0 0 0 0 0 0 0 0 0 0 0 0 0 0 0 0 0 0 0 0 0 0 0 0 0 0 0 0 0 0 0 0 0 0 0 1
18 13 10 3 2 0 0 0 0 0 0 0 0 0 0 0 0 0 0 0 0 0 0 0 0 0 0 0 0 0 0 0 0 0 0 0 0 0 0 0 0 0 0
24 44 0 0 0 0 0 0 0 0 0 0 0 0 0 0 0 0 0 0 0 0 0 0 0 0 0 0 0 0 0 0 0 0 0 0 0 0 0 0 0 0 0
4 53 2 0 0 0 0 0 0 0 0 0 0 0 0 0 0 0 0 0 0 0 0 0 0 0 0 0 0 0 0 0 0 0 0 0 0 0 0 0 0 0 0
0 0 0 0 0 0 0 0 0 0 0 0 0 0 0 0 0 0 0 0 0 0 0 0 0 0 0 0 0 0 0 0 0 0 0 0 3 2 0 0 0 0 0
0 0 0 0 0 0 0 0 0 0 0 0 0 0 0 0 0 0 0 0 0 0 0 0 0 0 0 0 0 0 0 0 0 0 0 0 0 7 4 1 1 0 0
21 0 0 0 0 0 0 0 0 0 0 0 0 0 0 0 0 0 0 0 0 0 0 0 0 0 0 0 0 0 0 0 0 0 0 0 0 0 1 8 14 19 0
0 0 0 0 0 0 0 0 0 0 0 0 0 0 0 0 0 0 0 0 0 0 0 0 0 0 0 0 0 0 0 0 0 0 0 0 0 1 1 0 0 9 0
0 0 0 0 0 0 0 0 0 0 0 0 0 0 0 0 0 0 0 0 0 0 0 0 0 0 0 0 0 0 0 0 0 0 0 0 0 0 0 0 1 0 0
0 0 0 1 0 0 0 0 0 0 0 0 0 0 0 0 0 0 0 0 0 0 0 0 0 0 0 0 0 0 0 0 0 0 0 0 0 0 4 5 16 15 11
0 0 0 0 0 0 0 0 0 0 0 0 0 0 0 0 0 0 0 0 0 0 0 0 0 0 0 0 0 0 0 0 0 0 0 0 0 0 0 7 21 54 46
0 0 0 0 0 0 0 0 0 0 0 0 0 0 0 0 0 0 0 0 0 0 0 0 0 0 0 0 0 0 7 9 7 0 0 0 0 0 0 0 0 0 0
0 0 0 0 0 0 0 0 0 0 0 0 0 0 0 0 0 0 0 0 0 0 0 0 0 0 0 0 0 0 7 19 14 15 0 0 0 0 0 0 0 0 0
0 0 0 0 0 0 0 0 0 0 0 0 0 0 0 0 0 0 0 0 0 0 0 0 0 0 0 0 0 0 0 0 0 1 10 0 0 0 0 0 0 0 3
0 0 0 0 0 0 0 0 0 0 0 0 0 0 0 0 0 0 0 0 0 0 0 2 3 6 7 7 5 3 1 0 0 0 19 0 0 0 0 0 0 0 0
0 0 0 0 0 0 0 0 0 0 0 0 0 0 0 0 0 0 0 0 3 0 0 0 2 2 2 1 0 0 0 1 15 13 0 0 0 0 0 0 0 0 0
CIN
0 0 0 0 0 0 0 0 0 0 0 0 0 0 0 0 0 0 0 0 0 -0 -0 0 0 -0 0 0 0 0 0 0 0 0 0 0 -0 -0 -0 -0 -0 0 -0
0 0 0 0 0 0 0 0 0 0 0 0 0 0 0 0 0 0 0 0 0 0 -0 -0 0 -0 -0 0 0 0 0 0 0 0 0 0 0 -0 -0 -0 -0 -0 0
0 0 0 0 0 0 0 0 0 0 0 0 0 0 0 0 0 0 0 0 0 0 -4 -0 0 0 -0 0 0 0 0 0 0 0 0 0 -1 -0 -0 -0 -0 -0 -0
-266 0 0 0 0 0 0 0 0 0 0 0 0 0 0 0 0 0 0 0 0 0 0 -2 0 0 0 0 0 0 0 0 0 0 0 0 -0 -0 -0 -0 -0 -0 0
-192 -261 -225 0 0 0 0 0 0 0 0 0 0 0 0 0 0 0 0 0 0 0 0 0 0 0 0 0 0 0 0 0 0 0 0 0 0 -0 0 0 -0 0 0
-140 -174 -144 0 0 0 0 0 0 0 0 0 0 0 0 0 0 0 0 0 0 0 0 0 0 0 0 0 0 0 0 0 0 0 0 0 0 0 0 0 0 0 0
-91 0 -204 -249 0 0 0 0 0 0 0 0 0 0 0 0 0 0 0 0 0 0 0 0 0 0 0 0 0 0 0 0 0 0 0 0 0 0 0 0 0 0 -0
-109 -125 -163 -208 0 0 0 0 0 0 0 0 0 0 0 0 0 0 0 0 0 0 0 0 0 0 0 0 0 0 0 0 0 0 0 0 0 0 0 0 0 0 0
-121 -156 -202 -173 -171 0 0 0 0 0 0 0 0 0 0 0 0 0 0 0 0 0 0 0 0 0 0 0 0 0 0 0 0 0 0 0 0 0 0 0 0 0 0
-151 -148 -169 -194 -30 0 0 0 0 0 0 0 0 0 0 0 0 0 0 0 0 0 0 0 0 0 0 0 0 0 0 0 0 0 0 0 0 0 0 0 0 0 0
-165 -171 -150 -181 -164 -12 0 0 0 0 0 0 0 0 0 0 0 0 0 0 0 0 0 0 0 0 0 0 0 0 0 0 0 0 0 0 0 0 0 0 0 0 0
-168 -175 -183 -140 -163 0 0 0 0 0 0 0 0 0 0 0 0 0 0 0 0 0 0 0 0 0 0 0 0 0 0 0 0 0 0 0 0 0 0 0 0 0 0
-173 -159 0 0 0 0 0 0 0 0 0 0 0 0 0 0 0 0 0 0 0 0 0 0 0 0 0 0 0 0 0 0 0 0 0 0 0 0 0 0 0 0 0
-236 -197 -248 0 0 0 0 0 0 0 0 0 0 0 0 0 0 0 0 0 0 0 0 0 0 0 0 0 0 0 0 0 0 0 0 0 0 0 0 0 0 0 0
0 0 0 0 0 0 0 0 0 0 0 0 0 0 0 0 0 0 0 0 0 0 0 0 0 0 0 0 0 0 0 0 0 0 0 0 -97 -43 0 0 0 0 0
0 0 0 0 0 0 0 0 0 0 0 0 0 0 0 0 0 0 0 0 0 0 0 0 0 0 0 0 0 0 0 0 0 0 0 0 0 -98 -42 -8 -8 0 0
-98 -0 0 0 0 0 0 0 0 0 0 0 0 0 0 0 0 0 0 0 0 0 0 0 0 0 0 0 0 0 0 0 0 0 0 0 0 0 -21 -41 -26 -11 0
0 0 0 0 0 0 0 0 0 0 0 0 0 0 0 0 0 0 0 0 0 0 0 -6 -29 0 0 0 0 0 0 0 0 0 0 0 0 -9 -33 0 -2 -30 0
0 0 0 0 0 0 0 0 0 0 0 0 0 0 0 0 0 0 0 0 0 0 0 0 0 0 0 0 0 0 0 0 0 0 0 0 0 0 0 0 -20 0 -8
0 0 0 0 0 0 0 0 0 0 0 0 0 0 0 0 0 0 0 0 0 0 0 0 0 0 0 0 0 0 0 0 0 0 0 0 0 0 -23 -16 -10 -36 -39
0 0 0 0 0 0 0 0 0 0 0 0 0 0 0 0 0 0 0 0 0 0 0 0 0 0 0 0 0 0 0 0 0 0 0 0 0 0 0 -7 -1 -24 -25
0 0 0 0 0 0 0 0 0 0 0 0 0 0 0 0 0 0 0 0 0 0 0 0 0 0 0 0 0 -0 -2 -0 -1 0 0 0 0 0 0 0 0 0 0
-0 0 0 0 0 0 0 0 0 0 0 0 0 0 0 0 0 0 0 0 0 0 0 0 0 0 0 0 0 -1 -1 -1 -1 -2 0 0 0 0 0 0 0 0 0
0 0 0 0 0 0 0 0 0 0 0 0 0 0 0 0 0 0 0 0 0 0 0 0 0 0 0 0 0 0 -0 -2 -0 -1 -1 0 0 0 0 0 0 0 -10
0 0 0 0 0 0 0 0 0 0 0 0 0 0 0 0 0 0 0 0 0 0 -0 0 -0 0 0 0 -0 -1 -1 0 0 -0 -6 -0 0 0 0 0 0 0 0
0 0 0 0 0 0 0 0 0 0 0 0 0 0 0 0 0 0 0 0 -0 -0 0 -0 -1 -0 -0 -0 -3 0 0 -0 -0 -0 0 0 0 0 0 0 0 0 0
Wind_Speed
7 5 4 4 6 4 5 5 5 4 4 6 6 6 5 5 5 2 2 10 10 11 11 11 11 10 9 8 8 8 8 8 8 8 9 8 9 10 11 11 12 13 14
7 6 5 4 4 4 4 5 5 5 4 4 4 6 5 5 5 5 3 3 9 10 11 11 10 9 8 7 6 5 5 5 5 6 7 8 8 8 10 10 10 11 12
7 6 5 4 4 4 6 5 3 4 4 2 5 4 5 6 5 5 4 3 3 9 10 11 10 9 8 7 6 4 3 4 2 3 5 6 7 8 9 10 10 11 13
7 6 5 5 5 4 5 4 4 3 4 4 4 4 4 5 6 6 4 3 3 3 6 9 8 9 10 8 5 3 2 1 0 1 3 6 7 8 9 10 11 12 12
7 6 5 5 6 4 5 5 3 4 4 3 4 4 4 4 6 5 6 5 5 5 4 9 10 11 10 8 6 6 5 4 3 1 2 5 7 8 10 10 11 12 12
6 6 5 6 6 5 4 3 4 3 4 5 5 5 5 4 4 5 6 5 6 6 6 6 5 5 10 10 10 10 9 6 4 3 2 4 5 8 10 11 12 14 14
7 6 5 5 5 7 7 7 4 5 4 2 3 1 2 4 4 4 5 5 6 7 6 6 4 4 4 12 14 13 11 9 7 7 4 2 1 4 7 10 12 14 15
8 7 6 6 6 4 5 6 5 3 2 4 4 2 2 3 2 4 3 4 7 4 5 6 6 6 5 4 8 15 14 12 11 10 7 6 3 2 4 8 11 14 16
8 8 8 7 8 6 6 7 6 7 4 2 2 4 2 4 1 1 5 4 4 4 5 6 7 8 7 6 10 11 13 12 14 12 12 10 8 6 6 8 11 13 15
8 9 9 9 7 6 6 7 5 5 5 5 3 4 4 2 3 1 2 2 4 6 6 4 5 6 7 6 11 11 12 12 13 17 16 15 13 9 8 8 10 12 15
9 10 10 9 9 6 5 8 6 5 4 4 4 3 2 2 2 3 3 3 2 3 3 4 3 3 5 5 6 9 15 15 17 20 20 18 16 12 10 8 10 12 15
8 10 10 8 6 7 8 7 6 7 6 4 3 4 3 4 3 3 3 4 4 4 2 2 3 4 4 5 9 15 18 20 20 21 22 20 18 16 13 12 11 12 14
5 9 9 8 6 6 5 5 6 6 7 7 7 5 3 4 4 3 3 2 3 2 3 3 4 3 2 4 5 12 17 19 21 22 22 22 20 19 17 14 13 13 13
10 10 11 9 8 7 5 5 5 5 7 5 7 6 4 3 3 2 3 3 3 4 2 4 2 3 4 4 7 15 7 17 20 21 22 21 22 21 19 17 16 16 14
3 4 7 8 7 7 8 8 6 7 7 7 6 6 4 4 3 3 3 2 3 2 3 3 4 5 4 4 6 6 8 15 20 22 23 23 23 23 21 20 19 18 17
7 8 9 9 9 8 10 9 7 6 7 5 5 7 4 3 3 2 3 3 3 4 6 4 5 5 5 4 6 7 9 19 22 24 24 25 25 22 20 20 20 20 19
7 10 11 10 10 8 9 8 7 9 9 7 5 5 5 4 2 2 3 3 3 4 7 6 4 4 3 6 7 5 7 8 9 23 23 21 19 20 21 20 19 21 20
5 5 8 9 10 9 8 9 9 8 10 8 7 5 4 3 3 3 3 4 4 5 5 11 4 4 7 7 8 9 9 8 9 15 20 20 18 22 23 21 22 21 19
9 8 9 10 9 9 9 9 10 10 8 7 6 5 4 4 3 1 3 4 4 5 5 5 9 3 4 4 6 7 8 6 7 17 21 23 23 28 24 23 20 21 20
10 8 7 7 9 9 9 9 9 8 7 6 5 4 3 1 2 4 4 4 3 4 4 4 6 6 3 3 4 5 8 3 8 7 12 14 20 24 17 18 19 20 19
8 8 9 8 9 9 7 9 9 8 7 5 4 3 2 6 12 10 4 4 4 3 3 4 5 5 6 4 5 4 6 7 7 5 5 5 4 5 7 9 15 19 17
10 10 9 9 9 5 13 12 9 7 6 5 4 4 6 9 8 9 8 5 1 3 3 3 5 8 9 7 5 7 9 9 11 4 6 10 6 7 7 9 15 12 12
10 10 9 10 9 9 14 12 11 6 6 6 6 5 5 5 5 5 7 8 5 8 4 5 8 8 10 7 9 12 11 12 13 9 4 7 4 8 3 7 13 12 12
12 11 10 9 9 8 12 13 12 7 7 7 6 5 5 5 5 6 5 5 5 5 6 6 8 11 11 11 9 11 12 13 13 12 9 12 4 7 5 5 13 11 12
10 9 8 9 9 7 14 14 11 7 6 5 5 5 5 5 8 9 4 4 5 6 7 14 17 20 22 23 19 10 9 10 11 11 6 8 4 4 4 3 4 9 8
10 9 9 9 12 11 14 15 10 5 6 4 4 4 7 4 7 8 3 4 6 7 9 9 9 12 15 15 19 10 9 10 9 10 5 6 3 3 2 2 2 2 2
Wind_Direction
146 123 149 133 115 138 121 109 126 134 98 91 86 107 135 138 135 141 144 154 149 152 152 151 149 141 129 112 97 83 74 65 57 50 42 36 34 31 30 23 23 19 12
141 157 130 139 135 141 147 138 156 130 123 117 110 118 138 147 157 164 156 161 166 170 168 166 168 164 155 148 137 113 89 81 57 45 35 24 15 13 16 14 12 9 4
156 141 152 138 177 161 134 124 122 115 128 151 157 145 130 146 166 171 170 184 195 192 182 178 182 184 179 174 169 152 108 103 79 40 28 13 2 9 7 3 359 356 353
139 154 142 173 182 151 143 162 151 149 170 182 163 175 156 154 163 178 172 184 200 200 193 181 175 173 172 181 185 176 147 137 192 14 24 8 359 360 356 350 347 343 338
168 157 178 180 164 150 156 164 155 151 169 189 189 177 191 180 177 166 182 191 198 183 183 176 173 175 181 195 205 207 203 211 230 246 30 4 3 354 344 337 337 332 331
175 177 170 164 150 155 163 166 160 182 163 178 192 191 199 200 192 178 176 185 197 190 188 189 189 199 195 199 208 206 209 220 232 242 274 359 1 347 338 334 330 327 327
203 185 170 152 166 176 182 175 162 187 214 150 110 299 208 221 228 222 185 186 194 194 191 195 194 204 211 203 209 212 224 235 227 242 243 212 334 334 330 327 322 320 317
192 184 180 185 181 161 166 179 172 134 182 184 158 124 200 326 283 221 250 207 197 198 197 208 196 209 206 208 211 215 225 233 227 235 199 192 197 239 297 306 310 312 313
194 192 189 173 198 167 191 192 179 171 186 178 180 146 139 199 348 151 225 226 222 200 203 204 207 206 207 202 212 217 217 220 223 204 202 200 203 221 272 291 301 306 308
205 200 195 193 185 187 186 191 180 178 144 176 106 80 86 166 151 286 317 301 229 220 217 217 214 207 207 204 213 209 214 200 197 207 209 207 210 221 251 285 296 301 302
210 207 205 199 201 194 193 190 169 176 172 157 152 154 152 157 119 138 220 291 317 238 245 233 227 240 233 214 207 215 201 190 193 205 211 212 215 222 240 255 280 290 296
209 208 206 202 193 180 182 177 168 178 176 142 139 157 173 162 180 155 202 217 224 281 274 276 242 238 239 226 220 205 197 194 197 203 211 213 217 225 232 242 263 280 287
203 208 192 187 181 188 183 160 166 170 163 172 166 162 172 186 149 148 145 194 246 278 264 224 248 263 275 217 222 228 212 199 201 205 210 213 217 225 229 240 256 269 282
213 194 191 183 180 172 184 166 159 156 152 149 165 179 167 149 123 122 145 157 239 237 267 258 283 227 232 249 229 221 223 219 210 210 211 214 220 224 226 234 244 251 261
171 170 184 184 174 178 165 155 152 148 156 166 165 151 146 167 164 178 201 195 173 242 246 270 252 261 258 235 249 210 210 220 221 219 214 217 220 223 226 231 236 245 252
160 202 177 185 170 166 152 146 147 150 153 151 149 167 160 147 161 192 201 201 210 241 269 205 244 245 264 266 242 213 218 224 223 223 222 221 221 221 228 235 240 241 246
216 190 173 166 159 164 147 145 159 152 149 150 148 158 160 149 190 192 219 224 242 228 267 272 227 254 265 262 274 251 232 229 234 231 234 238 233 232 230 234 237 241 241
212 174 162 162 156 151 147 148 143 151 147 154 162 168 152 191 213 220 224 243 241 251 258 280 271 238 230 246 248 255 256 242 233 229 234 229 220 238 240 231 234 232 232
148 151 157 152 144 148 144 144 144 149 150 156 157 160 168 187 228 298 313 289 266 273 277 281 291 274 254 261 271 265 256 240 232 223 217 218 225 232 230 232 234 228 232
139 139 138 134 136 137 137 140 143 140 140 139 146 184 196 248 276 273 267 310 335 331 311 303 298 294 261 273 259 275 279 270 271 259 244 242 235 231 242 235 244 230 233
126 127 125 123 132 136 140 143 136 140 131 148 145 169 43 52 75 71 76 29 14 345 325 314 302 306 302 301 287 277 273 281 274 217 249 244 235 228 267 251 246 237 234
129 127 131 134 133 134 134 123 127 129 138 140 122 82 99 74 74 79 79 76 328 328 307 284 299 286 292 283 286 289 287 286 281 221 219 246 222 222 214 229 219 205 227
131 132 136 137 138 134 134 130 123 120 112 107 102 84 78 54 56 50 25 16 2 335 264 251 276 274 285 284 289 293 289 286 286 291 258 250 188 232 215 227 217 224 235
144 145 140 137 123 130 131 125 113 109 102 95 90 88 85 57 39 24 17 343 315 289 289 294 284 284 278 282 272 280 285 285 280 268 230 262 195 227 201 212 228 236 215
134 133 127 115 113 124 121 119 114 108 99 90 83 68 66 41 11 359 334 295 302 293 295 303 297 295 293 287 278 289 286 288 285 279 236 243 226 207 180 214 221 224 199
133 129 117 120 120 113 110 113 107 110 101 91 67 61 40 16 341 337 343 310 325 327 320 318 312 305 306 296 275 250 254 271 281 279 224 213 172 152 250 256 177 128 155